Weather in BeitBridge

Zimbabwe     22°12′15″S   29°59′56″E
temp.,
°C
wind,
m/s
gust,
m/s
humid.,
%
clouds,
%
prec.,
mm/h
press.,
hPa
HPBL,
m
12 august, fri
fri1223:00+21e33430 0.0 101923
02:00+19ese23480 0.0 101815
05:00+17ese22560 0.0 101811
08:00+19ene11510 0.0 1020189
11:00+24ne11360 0.0 10191048
14:00+28ene11230 0.0 10141513
17:00+28sse11200 0.0 10131538
20:00+23nne01280 0.0 101411
13 august, sat
sat1323:00+22ne33300 0.0 101420
02:00+19ese11380 0.0 101311
05:00+18nne33420 0.0 101413
08:00+21nw11365 0.0 1015126
11:00+27nnw23235 0.0 1014856
14:00+31n22140 0.0 10091561
17:00+31n12130 0.0 100820
20:00+26e33160 0.0 100912
14 august, sun
sun1423:00+23ene34182 0.0 101019
02:00+20nne23271 0.0 100914
05:00+18ese22320 0.0 100911
08:00+22wsw22250 0.0 1011154
11:00+30wnw79130 0.0 1009972
14:00+34w810100 0.0 10051979
17:00+33wsw71080 0.0 1004373
20:00+26sw714115 0.0 1007198
15 august, mon
mon1523:00+24sw6111754 0.0 1009138
02:00+21ese58235 0.0 1012133
05:00+16ese811741 0.0 1015339
08:00+18ese88610 0.0 1018532
11:00+22ese88390 0.0 10191433
14:00+25ese76300 0.0 10161887
17:00+24e77290 0.0 10161815
20:00+20e611370 0.0 1020300
16 august, tue
tue1623:00+16e813580 0.0 1022535
02:00+14ese713602 0.0 1023564
05:00+12ese612650 0.0 1024403
08:00+14e710600 0.0 1026641
11:00+20e66350 0.0 10241270
14:00+23e44260 0.0 10201506
17:00+24ene44250 0.0 10181496
20:00+19e44340 0.0 102047